Погода в Ужгороде

Погода в Ужгороде : погода сейчас, прогноз погоды и архив. Всё, что Вы хотите узнать о погоде в Ужгороде!

Поиск расширенной информации на нашем сайте:

Полезная информация:

Другие новости

Новости СМИ2

Главная страница сайта

Новости сайта

03.07.2017

Напоминаем, что на нашем специализированном сайте Метеоцентр.Азия вы можете получить высокодетализированные автоматические прогнозы погоды по пунктам России, СНГ и мира в авиационном формате (включающие направление и скорость ветра, видимость, явления погоды, количество и форму облачности, нижнюю и верхнюю границу облачности).

Рекомендуем:

Погода в Ужгороде - сегодня

Время (UTC), дата Ветер
(°,м/с) 
Видим.   Явления Облачность Т
(°С)
Тd
(°С)
f(%) Тe
(°С)
Pmin
(гПа)
dP
(гПа)
Po
(мм)
O2
(г/м3)
Тmin Tmax R s Состояние
почвы
09 15.09.19 180 (Ю) 20000 м    5/0 верхняя 
[Ci fib]
+17.6 +5.8 46 +18  1027.5  -0.3  760  287           
12 15.09.19 270 (З) 10 км    3/0 верхняя 
[Ci fib]
+21 +4.6 34 +21  1025.3  -1.9  759  283           
15 15.09.19 190 (Ю) 20000 м    4/0 верхняя 
[Ci fib]
+22.4 +5.1 32 +22  1022.7  -2.5  757  281           
18 15.09.19 130 (ЮВ) 10 км    3/0 верхняя 
[Ci fib]
+14.6 +8.2 65 +15  1021.7  -1.4  756  288    +23       
21 15.09.19 тихо ()   10 км    4/0 верхняя 
[Ci fib]
+11.8 +7.7 76 +12  1021.5  -0.2  755  290           
00 16.09.19 120 (ЮВ) 10 км    4/0 верхняя 
[Ci fib]
+13 +6.5 65 +13  1021  -0.5  755  289           
03 16.09.19 130 (ЮВ) 10 км    8/0 верхняя 
[Ci fib]
+11.2 +6.5 73 +11  1019.9  -1.2  754  291           
06 16.09.19 тихо ()   10 км    8/0 верхняя 
[Ci fib]
+13 +6.8 66 +13  1019.8  754  289  +9.8         
09 16.09.19 130 (ЮВ) 20000 м    8/0 верхняя 
[Ci fib]
+20 +8.8 48 +20  1018.7  -0.7  754  281           
12 16.09.19 170 (Ю) 10 км    6/0 верхняя 
[Ci fib]
+23.3 +9.5 41 +24  1016.4  -2.2  752  278           
15 16.09.19 тихо ()   10 км    8/5 1500 м средняя 
[Sc|Ac trans]
+25 +11.4 43 +28  1014.1  -2.2  750  275           
18 16.09.19 тихо ()   10 км    8/8 1500 м 
[Sc]
+18.8 +14.3 75 +26  1013.9  -0.5  750  280    +25.6       
21 16.09.19 010 (С) 10 км    10/10 1500 м 
[Sc]
+19.8 +11.9 60 +25  1013.2  -0.6  750  279           
00 17.09.19 тихо ()   10 км  слаб. дождь  10/10 1300 м 
[Sc]
+16.4 +13.9 85 +23  1013.4  750  282      0.4     
03 17.09.19 тихо ()   10 км  {дождь}  8/8 1380 м 
[Sc]
+14.6 +13.3 92 +20  1013.5  750  284           
06 17.09.19 тихо ()   10 км  {дождь}  10/10 1000 м 
[Sc]
+14.2 +12.7 91 +19  1013.2  -0.3  749  284  +13.6    0.4     
09 17.09.19 310 (СЗ) 20000 м  {дождь}  10/10 1050 м 
[Sc]
+16 +12.4 79 +22  1013.7  0.6  750  283           
12 17.09.19 тихо ()   20000 м  {дождь}  8/8 1200 м 
[Sc]
+18.1 +10.3 60 +20  1012.9  -0.7  749  281      0.0     
15 17.09.19 290 (З) 20000 м    6/6 1500 м 
[Sc]
+20.3 +10.2 52 +22  1010.3  -2.4  747  279           
18 17.09.19 тихо ()   10 км    4/4 1500 м 
[Sc]
+14.6 +11 79 +17  1010.5  -0.2  747  284    +20.4  0.0     
21 17.09.19 тихо ()   10 км    6/3 1000 м средняя 
[Sc|Ac trans]
+10.5 +9.5 94 +11  1010.5  -0.1  747  288           
00 18.09.19 330 (СЗ) 10 км    4/0 средняя 
[Ac trans]
+11.8 +6.2 69 +10  1012.7  2.1  749  288           
03 18.09.19 340 (С) 10 км  {дождь}  6/6 1500 м 
[Sc]
+11.6 +2.3 53 +11  1013.8  1.1  750  289           
06 18.09.19 320 (СЗ) 10 км  {дождь}  3/3 1000 м 
[Sc]
+11.7 +1.9 51 +10  1016.3  2.5  752  290  +7.2    0.0     
09 18.09.19 320 (СЗ) 20000 м    8/6 1500 м средняя 
[Sc|Ac trans]
+13.7 +0 39 +13  1019.3  3.1  754  289           
Время (UTC), дата Ветер
(°,м/с) 
Видим.   Явления Облачность Т
(°С)
Тd
(°С)
f(%) Тe
(°С)
Pmin
(гПа)
dP
(гПа)
Po
(мм)
O2
(г/м3)
Тmin Tmax R s Состояние
почвы

Для получения пояснительной информации подведите курсор к названию столбца.

ПОГОДА в Ужгороде - архив

Всё, что Вы хотите узнать о погоде в Ужгороде - удобно и подробно!

Выберите нужную дату (начиная с 1 января 2018* года) и нажмите кнопку "Найти".
Будут отображены архивные сводки погоды по пункту Ужгород, начиная с указанной даты.


Отображать данные в формате CSV (для использования в таблицах Excel)


Внимание! Наш архив погоды предназначен исключительно для личного некоммерческого использования в познавательных целях. Если Вам необходимы официальные справки о состоянии погоды (для производственных, юридических, коммерческих и т.п. целей), обращайтесь в органы Росгидромета.

*Примечание: данная дата относится к архиву по метеостанциям СССР (Россия, СНГ, Балтия).
Архив по метеостанциям Зарубежной Европы и Азии (кроме Китая) хранится 10 дней, по другим регионам земного шара (Китай, Африка, Америка, Австралия, Океания) - 1 день.

Ужгород - район местоположения метеостанции


Название, широта, долгота, высота метеостанции:
Ужгород 48.6°ш. 22.3°д. 124 м над ур. моря [Украина]

Дополнительная информация

В oтличие oт бoльшинства пoгoдных сайтoв мы публикуем пoдрoбную метеoинфoрмацию в детальнoм прoфессиoнальнoм фoрмате.

Характеристики температуры и влажнoсти вoздуха измеряются на высoте 2 м в тени вдали oт зданий и деревьев.
Скoрoсть ветра измеряется на высoте 10 м (на урoвне рoста челoвека скoрoсть ветра ниже в 1.5-2 раза). Если метеoстанция нахoдится в гoрoде или в лесу, тo скoрoсть ветра занижена на 2-4 м/с пo сравнению с oткрытым местoм. Скoрoсть ветра над акватoриями крупных рек и oзёр, а также на вершинах хoлмoв на 2-5 м/с выше, чем в oбычных услoвиях.
Атмoсфернoе давление в разных тoчках местнoсти мoжет значительнo oтличаться oт давления на метеoстанции, в зависимoсти oт услoвий рельефа (при пoдъёме на 10 м давление пoнижается примернo на 1 мм рт.ст.).